GSAT-14

Last updated on Oct. 1, 2020, 5:42 a.m. UTC

1 39498U 14001A   20274.94709133 -.00000091  00000-0  00000+0 0  9990
2 39498   0.0104 167.3316 0004740  59.3787 198.4031  1.00272358 24674
UTC
Height (km)
Latitude
Longitude
Inclination
Orbital Period
UTC large
Height (km)
Speed (km/s)
/
Latitude / Longitude
Inclination (degrees)
Orbital Period (minutes)
Azimuth
Elevation
Range (km)
Doppler Factor
iOS Compass Heading
iOS Angle

Next 30 passes for location: Hong Kong

Rise time Rise Azimuth (degrees) Set time Set Azimuth (degrees) Duration Max altitude (degrees)

No matching passes for this satellites